Main page
METAR-TAF:

METAR-TAF

Airports :

Piacenza Air Base

Piacenza, Italy

latitude: 44-55N, longitude: 009-44E, elevation: 134 m

Current weather observation

The report was made 32 minutes ago, at 12:55 UTC
Wind 10 kt from the East/Southeast, varying between East/Northeast and South/Southeast
Temperature 19°C
Humidity 30%
Pressure 1018 hPa
Visibility 10 km or more
no clouds below 1500 m and no cumulonimbus

METAR: LIMS 211255Z 12010KT 060V150 CAVOK 19/01 Q1018 RMK BKN BKN140 VIS MIN 9999 WIND THR30 11009KT BLU

Time: 15:27 (13:27 UTC)


TAF: missing

Weather observations and forecasts of more than 4000 airports (METAR and TAF reports).

The available stations are represented by yellow and red dots on the map.

Hover mouse over dot to see the name of the station.

Then click to see weather observations and forecasts.

To change the map : click on the green buttons with a black cross to zoom in, on the green button with a dash to zoom out, or on the green arrows for adjacent maps.


METAR-TAF: